RH
25 24 24 26 28 27 31 33 34 33 35 36 37 39 49 47 46 42 36 32 28 24 28 30 28 30 31 32 33 34 36 37 41 42 45 47 48 49 51 51 55 62 65 51
25 23 25 27 28 28 27 29 30 30 30 31 34 35 38 48 44 40 41 32 30 30 31 30 28 30 31 31 32 35 34 34 34 35 36 37 40 41 43 48 57 62 63 46
19 22 25 25 27 25 26 27 26 25 27 31 33 34 35 43 46 42 38 34 31 28 30 31 31 32 32 32 34 37 39 39 36 39 42 44 37 45 52 62 66 60 53 42
18 18 24 24 24 23 27 26 23 24 25 27 30 29 38 37 44 45 41 34 30 30 30 32 31 32 32 35 42 45 41 41 42 42 44 49 44 46 50 55 64 69 48 34
15 16 17 20 21 22 26 26 24 24 28 32 32 29 30 35 36 36 39 33 31 28 31 32 30 33 35 39 44 44 46 44 41 37 38 43 49 52 56 53 68 60 47 43
13 13 14 18 24 24 26 28 26 28 29 30 31 29 24 30 28 30 34 36 34 31 31 34 31 32 35 39 41 42 47 48 45 42 40 39 42 50 56 57 66 71 64 62
13 13 15 19 22 22 23 24 27 31 28 26 26 30 24 23 25 28 29 31 33 33 31 35 34 32 34 36 33 36 39 35 40 46 48 43 38 40 50 56 58 62 69 69
10 13 15 18 19 21 23 20 22 26 24 22 26 26 22 22 22 22 26 29 30 32 33 37 38 35 35 36 38 37 35 34 40 44 46 51 46 43 50 51 56 56 59 63
10 11 16 16 19 21 23 20 20 23 24 21 21 21 20 22 25 26 23 27 30 29 31 36 38 34 35 37 37 39 35 31 33 39 45 51 52 50 46 50 52 53 54 53
9 9 14 17 19 20 21 21 23 22 27 22 20 23 21 24 27 26 25 27 30 28 28 32 35 35 37 38 39 40 39 36 33 37 42 43 47 51 49 45 46 54 56 49
9 10 12 15 17 19 19 20 22 23 23 22 21 17 20 24 23 24 25 28 29 27 26 29 31 30 35 37 39 42 42 42 40 42 44 45 48 46 46 46 48 53 51 47
9 11 12 12 16 19 17 20 20 21 27 23 21 18 18 22 22 23 25 26 25 24 24 25 26 27 30 35 40 40 43 41 43 46 47 50 50 54 53 54 54 54 53 50
10 12 12 13 14 17 16 17 19 19 22 27 22 20 19 20 23 25 26 26 26 25 25 27 27 26 27 31 37 37 37 38 41 44 47 50 53 55 54 54 50 54 54 53
12 12 11 10 10 11 12 12 14 15 18 22 20 20 20 19 21 21 25 29 29 28 29 30 31 30 30 32 35 36 37 38 41 44 49 52 54 54 50 48 47 47 44 41
18 15 13 11 11 11 11 11 11 13 15 17 18 19 18 18 19 19 24 29 31 31 31 33 35 35 36 37 35 36 39 42 44 46 49 50 49 46 45 44 41 34 31 29
19 20 17 15 13 12 12 12 13 14 16 17 17 18 17 19 22 23 26 29 31 32 34 33 35 37 36 38 38 40 42 44 46 45 45 43 43 43 38 32 26 25 25 25
18 20 20 17 15 15 16 12 12 14 15 15 17 17 17 21 23 24 29 30 31 34 34 32 35 36 39 41 41 40 42 45 45 45 44 45 38 31 28 24 23 24 23 22
20 23 20 18 19 21 13 11 12 12 12 14 15 19 18 20 21 25 28 30 31 33 34 34 36 40 42 42 42 42 43 45 43 41 41 40 32 27 27 24 23 21 20 20
18 19 23 22 19 16 14 13 13 13 13 13 15 18 19 24 26 29 29 29 32 36 37 36 37 40 42 42 43 44 46 46 43 42 43 38 32 28 25 22 20 18 20 21
23 23 20 26 22 19 11 11 13 14 15 14 14 17 21 23 25 24 26 26 28 31 35 38 41 43 43 44 47 48 48 47 45 45 44 36 30 24 19 17 17 21 20 19
29 26 22 22 24 16 13 11 14 20 14 12 14 17 23 26 24 23 26 30 31 33 36 40 44 43 44 46 48 50 51 48 48 48 41 30 22 17 16 18 20 18 19 19
32 29 25 27 24 19 13 14 14 13 13 13 17 18 23 27 27 27 32 37 39 39 43 46 44 46 47 49 52 53 50 49 49 43 31 21 15 16 18 19 20 21 21 21
31 27 26 24 18 17 17 16 15 14 15 16 19 22 25 26 27 28 31 33 37 43 47 46 48 47 49 51 52 56 49 49 44 34 21 14 17 20 23 24 23 23 24 25
29 28 26 27 22 19 19 19 18 16 18 19 20 22 24 29 30 32 34 34 35 42 46 48 50 50 54 55 57 53 51 47 39 24 16 19 22 23 23 22 22 23 24 23
27 28 29 26 24 24 23 21 22 20 20 21 24 25 26 27 31 34 36 36 40 46 53 54 54 58 60 58 59 56 52 44 29 19 20 22 23 23 21 20 21 22 19 16
22 28 25 26 27 26 25 24 26 26 26 26 25 29 32 33 35 35 39 41 47 55 59 60 61 59 57 56 56 55 43 32 25 21 23 23 21 20 21 23 21 17 16 15